NSZ5431 EDDM-LEAL

Flight info

Callsign NSZ5431
Flight time N/A
Altitude 35000
Route TURBU7W TURBU Y107 TOBSO DCT BAKOR DCT SUMIR DCT PIDAD DCT TALEP DCT RARQU DCT BALEN DCT SORAS DCT NOMTO DCT NELAS DCT POS DCT OLUTO DCT ADX DCT OKITI DCT IBEBA DCT BAVER M603 GERVU
Aircraft B738/M-SDE2E3FGHIRWXY/LB1

Departure

Time N/A
Airport Munich Airport (EDDM)

Arrival

Time 2026-05-05 18:19
Airport Alicante-Elche Miguel Hernández Airport (LEAL)
Time Latitude Longitude Altitude Speed Heading
2026-05-05 18:09 38.63718 -0.28053 13426 ft 270 kts 232°
2026-05-05 18:09 38.62489 -0.29853 13188 ft 268 kts 232°
2026-05-05 18:09 38.61269 -0.31634 12969 ft 265 kts 232°
2026-05-05 18:09 38.60044 -0.33417 12462 ft 271 kts 232°
2026-05-05 18:10 38.58796 -0.35249 12006 ft 274 kts 232°
2026-05-05 18:10 38.57550 -0.37087 11668 ft 273 kts 232°
2026-05-05 18:10 38.56328 -0.38893 11359 ft 272 kts 232°
2026-05-05 18:10 38.55107 -0.40739 10985 ft 272 kts 233°
2026-05-05 18:11 38.53898 -0.42603 10621 ft 273 kts 233°
2026-05-05 18:11 38.52684 -0.44478 10282 ft 274 kts 233°
2026-05-05 18:11 38.51473 -0.46355 9979 ft 274 kts 233°
2026-05-05 18:11 38.50268 -0.48231 9664 ft 273 kts 233°
2026-05-05 18:12 38.49069 -0.50107 9297 ft 273 kts 233°
2026-05-05 18:12 38.47871 -0.51984 8979 ft 272 kts 233°
2026-05-05 18:12 38.46682 -0.53849 8673 ft 271 kts 233°
2026-05-05 18:12 38.45498 -0.55711 8354 ft 270 kts 233°
2026-05-05 18:13 38.44315 -0.57569 8085 ft 266 kts 233°
2026-05-05 18:13 38.43179 -0.59348 7984 ft 251 kts 233°
2026-05-05 18:13 38.42107 -0.61018 7856 ft 236 kts 233°
2026-05-05 18:13 38.41081 -0.62612 7422 ft 231 kts 233°
2026-05-05 18:14 38.40058 -0.64197 6842 ft 232 kts 233°
2026-05-05 18:14 38.39033 -0.65783 6245 ft 233 kts 233°
2026-05-05 18:14 38.37867 -0.67214 5632 ft 234 kts 218°
2026-05-05 18:14 38.36706 -0.68626 5019 ft 231 kts 240°
2026-05-05 18:15 38.36258 -0.70555 4454 ft 227 kts 263°
2026-05-05 18:15 38.35767 -0.72448 3811 ft 228 kts 234°
2026-05-05 18:15 38.34563 -0.73627 3507 ft 215 kts 200°
2026-05-05 18:15 38.33101 -0.73728 3071 ft 212 kts 164°
2026-05-05 18:16 38.31811 -0.72987 2949 ft 195 kts 155°
2026-05-05 18:16 38.30616 -0.72231 2614 ft 191 kts 152°
2026-05-05 18:16 38.29740 -0.71011 2221 ft 193 kts 109°
2026-05-05 18:16 38.29691 -0.69320 1860 ft 190 kts 86°
2026-05-05 18:17 38.29786 -0.67725 1686 ft 174 kts 91°
2026-05-05 18:17 38.29742 -0.66221 1450 ft 163 kts 99°
2026-05-05 18:17 38.29530 -0.64883 1333 ft 147 kts 107°
2026-05-05 18:17 38.29336 -0.63648 1185 ft 140 kts 104°
2026-05-05 18:18 38.29145 -0.62434 1018 ft 143 kts 105°
2026-05-05 18:18 38.28967 -0.61168 787 ft 147 kts 102°
2026-05-05 18:18 38.28790 -0.59897 557 ft 144 kts 103°
2026-05-05 18:18 38.28672 -0.59066 420 ft 143 kts 103°
2026-05-05 18:19 38.28496 -0.57821 245 ft 142 kts 103°
2026-05-05 18:19 38.28330 -0.56612 120 ft 128 kts 99°
2026-05-05 18:19 38.28200 -0.55691 99 ft 84 kts 100°
2026-05-05 18:19 38.28126 -0.55158 82 ft 35 kts 97°
2026-05-05 18:20 38.28131 -0.54963 75 ft 18 kts 80°
2026-05-05 18:20 38.28162 -0.54828 71 ft 10 kts 68°
2026-05-05 18:20 38.28184 -0.54766 60 ft 10 kts 66°
2026-05-05 18:20 38.28243 -0.54741 64 ft 12 kts 298°
2026-05-05 18:21 38.28259 -0.54845 70 ft 13 kts 279°
2026-05-05 18:21 38.28277 -0.54977 77 ft 17 kts 281°
2026-05-05 18:21 38.28297 -0.55122 82 ft 16 kts 279°
2026-05-05 18:21 38.28343 -0.55211 89 ft 12 kts
2026-05-05 18:22 38.28403 -0.55128 87 ft 13 kts 56°
2026-05-05 18:22 38.28422 -0.55022 88 ft 11 kts 85°
2026-05-05 18:22 38.28479 -0.54977 90 ft 11 kts 10°
2026-05-05 18:22 38.28550 -0.54962 86 ft 10 kts
2026-05-05 18:23 38.28619 -0.54946 88 ft 10 kts 11°
2026-05-05 18:23 38.28686 -0.54930 89 ft 10 kts 10°
2026-05-05 18:23 38.28716 -0.54937 88 ft 4 kts 308°
2026-05-05 18:23 38.28727 -0.54978 86 ft 6 kts 287°
2026-05-05 18:24 38.28733 -0.55004 86 ft 0 kts 286°